Regional Weather Roundup
Issued by NWS Newport/Morehead, NC

Current Version | Previous Version | Text Only | Print | Product List | Glossary On
Versions: 1 2 3 4 5 6 7 8 9 10 11 12 13 14 15 16 17 18 19 20 21 22 23 24 25 26 27 28 29 30 31 32 33 34 35 36 37 38 39 40 41 42 43 44 45 46 47 48 49 50
000
ASUS42 KMHX 060912
RWRMHX
WEATHER ROUNDUP FOR EASTERN NORTH CAROLINA
NATIONAL WEATHER SERVICE NEWPORT/MOREHEAD CITY NC
400 AM EST FRI MAR 06 2015

NOTE: "FAIR" INDICATES FEW OR NO CLOUDS BELOW 12,000 FEET
WITH NO SIGNIFICANT WEATHER AND/OR OBSTRUCTIONS TO VISIBILITY

NCZ015>017-031-032-045>047-102-103-061000-
NORTH COAST

CITY           SKY/WX    TMP DP  RH WIND       PRES   REMARKS
EDENTON        CLOUDY    29  24  83 NE13      30.39R WCI  18
ELIZABETH CITY CLOUDY    27  20  75 N21G30    30.39R WCI  13
KITTY HAWK     CLOUDY    28  23  81 N12G24    30.36R WCI  18
MANTEO         CLOUDY    28  22  77 N22G30    30.38R WCI  14

$$

NCZ045>047-081-094-103-104-061000-
CENTRAL COAST

CITY           SKY/WX    TMP DP  RH WIND       PRES   REMARKS
FRISCO         CLOUDY    30  27  88 N18G35    30.33R WCI  18
SWANQUARTER      N/A     30 N/A N/A N15G28    30.33R WCI  19

$$

NCZ095-097-098-100-101-061000-
SOUTHERN COAST

CITY           SKY/WX    TMP DP  RH WIND       PRES   REMARKS
BEAUFORT       CLOUDY    33  31  92 MISG      30.32R
CEDAR ISLAND     N/A     32 N/A N/A VRB22G36  30.36S WCI  19
JACKSONVILLE     N/A     33  29  85 N16       30.32R
PINEY ISLAND     N/A    N/A N/A N/A MISG      30.33R
WILMINGTON     CLOUDY    34  28  79 N14G23    30.32R


$$

NCZ011>013-027>030-043-044-078>080-089-090>093-098-061000-
COASTAL PLAIN

CITY           SKY/WX    TMP DP  RH WIND       PRES   REMARKS
AHOSKIE        CLOUDY    26  16  66 N13G20    30.42R WCI  14
CLINTON        CLOUDY    33  26  75 N9        30.37R
ELIZABETHTOWN  CLOUDY    34  28  77 N7G16     30.35R
GOLDSBORO      CLOUDY    31  29  94 N15G30    30.35R WCI  20
GREENVILLE     CLOUDY    30  19  64 N18G29    30.39R WCI  18
HAVELOCK       CLOUDY    33  27  78 N21G32    30.34R
KENANSVILLE    CLOUDY    31  25  76 N13G26    30.36R
KINSTON        MOCLDY    31  24  75 N20G26    30.37S WCI  19
NEW BERN       CLOUDY    32  24  72 N17G28    30.36R
RICHLANDS      CLOUDY    30  25  80 N17G23    30.33F WCI  18
ROCKY MOUNT    CLOUDY    28  21  75 N16       30.40R WCI  16
WASHINGTON     CLOUDY    29  21  70 N15G25    30.38R WCI  18
WHITEVILLE     CLOUDY    35  28  77 N6        30.32R

$$

AMZ130-135-150-152-154-156-158-170-250-252-270-ANZ085-086-088-633-658-670-061000-
MARINE OBSERVATIONS

STATION/POSITION TIME  TEMP    WIND        PRES    WAVE   SWELL
                       AIR SEA DIR/SP/G            HT/PER HT/PER
                 (UTC) (F)     (DEG/KT/KT) (MB)    (FT/S) (FT/S)
CHESAPEAKE LIGHT 0800   26     360/ 30/ 32 1028.5
64 E VA BEACH    0850   34 53  360/ 27/ 33 1026.1   12/ 8   8/ 8
DUCK             0800   28 36   10/ 23/ 32 1026.4
2 E DUCK         0811      35                N/A     9/ 8   2/11
10 NE DUCK       0822      37                N/A    10/ 8   2/11
OREGON INLET     0800   29 41  360/ 17/ 25 1026.9
HATTERAS CG      0800      47   10/ 30/ 35 1025.9
CAPE LOOKOUT     0900           10/ 19/ 25 1025.9
BEAUFORT LAB     0800   35 50   10/ 16/ 24 1025.3
27 SE WRIGHTSVLE NOT AVBL
5 SE WRIGHTSVLE  NOT AVBL
225 S CAPE HAT   0850   74 72  240/ 19/ 25 1017.9    8/ 7   3/10
41 SE CHARLESTON 0850   47 68   30/ 29/ 37 1022.5   10/ 7

$$


USA.gov is the U.S. government's official web portal to all federal, state and local government web resources and services.